Tracking 26442 objects as of 7-Dec-2022
HD Live streaming from Space Station
objects crossing your sky now

NOAA 16 DEB

Track NOAA 16 DEB now!
10-day predictions


NORAD ID: 41136
Int'l Code: 2000-055BT
Perigee: 756.1 km
Apogee: 819.3 km
Inclination: 99.1 °
Period: 100.5 minutes
Semi major axis: 7158 km
RCS: Unknown
Launch date: September 21, 2000
Source: United States (US)
Launch site: AIR FORCE WESTERN TEST RANGE (AFWTR)

Note: This is SATELLITE DEBRIS
aabbcc
Your satellite tracking list
Your tracking list is empty




NASA's NSSDC Master Catalog

Two Line Element Set (TLE):
1 41136U 00055BT  22340.34908793  .00007081  00000-0  25564-2 0  9999
2 41136  99.0886 179.0624 0044120 274.3373  85.2769 14.33351786365019
Source of the keplerian elements: AFSPC